Theta_e
348 350 348 346 347 346 347 350 350 349 349 349 349 349 349 349 348 349 349 349 350 350 350 350 349 348 348 346 346 346 345 344 344 345 345 347 347 348 348 346 346 344 343 342 341 340 339 338 336 336 336 338 339 341 342 338 336 337 339 339 338 335
348 346 348 345 346 348 349 348 347 349 348 349 349 349 350 348 348 349 349 349 350 348 348 349 348 348 347 348 347 345 345 344 344 345 346 347 347 347 347 346 345 344 343 342 340 339 339 338 337 336 339 339 339 341 344 343 340 339 340 338 337 335
345 347 343 344 343 347 346 346 346 346 347 348 349 350 348 348 347 346 347 346 349 352 352 349 350 347 346 346 347 345 344 344 345 346 346 346 346 346 347 346 345 344 342 342 341 341 339 336 336 338 339 339 343 341 342 341 341 340 338 337 335 335
347 344 345 345 342 346 349 351 348 345 347 346 347 347 346 347 346 345 346 349 353 351 350 347 345 346 346 347 347 345 344 344 344 345 345 346 346 346 346 345 344 343 343 340 344 341 339 338 335 338 341 343 337 337 341 341 337 338 338 335 334 334
349 348 346 343 343 346 346 346 346 351 348 348 348 347 347 347 347 346 349 349 349 348 348 346 346 348 345 348 344 344 344 343 344 343 345 342 344 348 347 345 345 342 340 342 344 344 343 340 340 341 342 339 338 341 340 341 338 339 338 336 335 334
347 347 345 344 345 345 346 343 347 349 351 349 345 350 351 349 347 346 349 348 348 348 345 345 346 343 345 342 345 343 341 341 339 338 339 339 338 343 344 344 342 340 341 344 346 346 344 341 340 341 339 340 340 341 340 339 337 338 338 336 335 334
346 346 343 346 345 343 343 347 348 349 347 347 347 345 348 351 347 345 346 347 346 345 343 343 345 343 342 344 343 344 344 341 340 337 337 339 338 340 340 342 341 340 341 342 343 344 341 339 340 338 338 337 339 339 339 337 337 338 338 337 335 333
345 348 341 344 342 344 347 346 346 347 347 344 345 346 346 350 347 345 344 346 347 345 343 342 340 344 344 345 343 342 342 346 342 337 335 340 338 338 339 343 343 341 340 342 341 342 340 339 339 341 338 338 338 339 339 338 339 337 337 339 334 334
345 345 346 345 344 345 348 349 346 347 347 346 344 346 351 347 345 345 344 344 343 343 343 342 343 343 344 341 340 342 341 344 339 340 338 338 338 338 340 343 344 342 343 342 342 342 339 337 339 340 338 337 339 338 338 338 338 335 336 337 336 334
349 346 344 345 349 349 349 349 348 346 346 346 346 346 346 346 347 346 346 345 343 343 343 342 342 344 344 342 341 337 340 342 341 340 340 338 337 337 338 340 343 343 339 341 341 341 338 337 335 338 339 339 338 338 338 337 336 334 336 337 335 334
351 352 348 348 349 348 347 348 346 345 344 342 343 345 345 346 345 348 347 346 345 344 340 340 339 341 342 342 342 341 341 343 344 344 344 342 340 339 339 339 341 340 341 340 341 341 337 337 336 337 340 337 336 339 339 339 338 339 336 338 335 332
350 353 352 346 349 349 346 345 343 341 340 341 342 345 346 345 345 348 346 345 344 343 343 343 341 340 342 344 342 341 339 343 342 347 344 342 341 340 340 337 338 340 341 342 341 341 340 337 336 336 338 337 339 339 339 340 339 339 339 339 335 334
348 352 351 350 345 348 348 346 342 341 341 342 345 346 344 345 340 345 348 348 345 344 342 341 341 337 339 341 340 339 339 342 343 344 343 343 343 344 341 340 340 341 340 339 340 341 340 338 336 337 338 338 337 338 340 340 340 340 338 338 337 336
350 350 351 351 350 347 345 344 346 348 348 349 347 348 348 347 345 346 349 347 344 340 341 343 342 341 341 339 339 339 340 338 343 345 344 344 342 341 341 339 339 339 339 338 337 339 338 337 334 337 339 340 340 341 340 341 340 340 339 338 338 338
347 350 349 349 348 350 348 348 347 346 346 348 349 348 347 348 347 347 346 345 343 340 341 344 343 343 340 340 336 338 340 342 341 345 345 343 343 342 340 340 339 337 340 338 337 339 338 337 335 336 338 340 340 341 342 341 341 341 337 339 337 337
345 346 348 347 349 348 347 347 347 345 347 349 347 347 348 348 348 346 347 346 346 345 344 343 343 342 337 338 341 340 343 342 339 342 342 344 344 340 341 340 340 339 337 338 338 337 337 336 336 336 338 340 340 341 340 340 341 339 338 339 336 339
344 344 345 346 345 345 346 345 347 348 348 348 346 346 346 349 348 347 346 346 347 346 345 345 344 343 342 339 340 340 342 340 340 342 339 336 342 340 341 339 340 339 339 337 337 336 337 337 337 337 337 339 341 341 340 340 340 339 339 337 336 337
343 344 344 344 345 344 345 346 347 346 348 346 347 346 347 347 346 345 347 345 347 347 345 345 343 343 343 339 340 341 342 341 341 342 339 338 335 335 336 341 338 341 338 338 333 335 336 334 335 337 339 339 341 340 338 339 340 339 338 336 336 336
344 345 344 342 342 343 344 344 344 345 345 346 346 347 347 346 346 346 345 346 347 347 347 347 346 345 339 337 339 341 342 341 341 342 339 337 335 335 336 336 333 334 340 339 340 333 335 336 335 336 336 339 340 340 339 339 340 339 338 336 336 336
343 344 345 345 344 343 344 342 340 342 340 341 344 344 347 346 348 346 347 347 347 348 347 348 346 345 345 340 339 342 341 341 341 340 340 340 337 336 336 334 335 334 336 334 336 335 338 336 335 333 335 337 338 338 338 338 338 338 338 336 336 336
341 344 345 343 344 343 342 343 342 341 339 338 339 343 345 346 346 346 347 347 347 346 344 344 343 344 342 342 342 343 341 341 339 338 341 340 339 340 339 337 337 339 331 333 331 336 330 332 330 335 335 336 333 337 339 339 338 337 336 336 335 336
342 342 342 342 345 345 346 344 341 341 341 341 339 339 339 344 346 346 345 344 345 345 344 344 344 344 343 342 341 341 341 342 342 341 340 341 340 341 338 336 337 336 336 334 334 333 333 333 328 328 328 327 331 328 331 336 337 338 341 339 337 335
341 342 342 342 341 342 345 345 342 339 341 339 340 342 342 343 344 345 346 346 345 345 345 343 343 343 342 342 342 341 342 342 342 341 339 336 339 339 338 336 336 334 335 336 335 335 334 334 329 331 327 326 322 321 325 329 331 334 338 337 338 335
340 341 341 342 341 342 342 344 344 345 341 339 338 339 342 345 342 344 344 345 345 344 343 344 343 342 341 341 342 340 342 341 341 339 339 337 338 337 336 335 338 336 334 332 332 331 335 332 335 327 319 321 321 321 316 321 325 332 337 336 334 337
339 340 341 341 342 343 343 344 344 344 345 343 340 339 342 338 344 343 343 343 343 342 341 341 342 341 341 341 341 341 339 339 340 340 339 338 337 336 335 337 337 336 335 332 330 332 333 333 333 333 328 324 321 318 318 321 327 328 335 332 333 334
339 340 342 345 345 344 343 341 340 338 337 337 335 338 335 334 335 340 339 343 344 342 340 340 341 342 342 341 341 341 341 339 341 340 340 339 338 337 334 337 337 338 333 335 332 330 327 331 333 334 335 332 332 321 320 326 325 320 331 333 333 331
337 337 339 341 342 343 343 341 341 336 338 335 333 333 337 338 338 340 343 342 342 344 342 341 342 342 341 341 341 341 341 341 339 340 339 338 336 337 335 336 337 337 337 334 330 327 329 328 330 330 332 336 334 332 332 326 321 325 320 326 331 330
335 337 338 339 339 341 340 339 338 338 335 334 336 332 337 339 342 341 339 341 341 341 342 343 341 341 340 341 341 341 340 340 339 339 340 337 336 336 336 336 336 336 338 336 333 332 330 330 327 328 334 335 333 332 333 331 329 324 322 320 322 331
331 332 333 334 335 336 338 339 338 339 338 336 335 335 339 338 338 338 339 340 340 340 341 343 341 340 340 341 341 340 340 339 339 338 337 337 338 336 336 335 335 332 334 335 335 333 332 332 332 329 330 329 332 331 330 330 330 328 322 321 321 321
327 329 331 332 333 333 335 336 337 337 337 337 336 339 340 337 336 337 336 337 338 339 339 340 342 341 341 341 342 341 340 339 339 337 336 336 336 336 337 336 334 335 337 333 333 333 331 330 330 336 334 331 328 329 325 327 327 327 326 325 320 321
326 327 328 329 330 331 334 335 335 336 337 336 337 337 338 338 336 335 335 339 339 337 338 339 340 342 341 341 341 341 340 339 339 338 337 335 336 336 336 336 336 335 335 333 331 332 332 333 335 333 329 328 329 330 327 323 325 326 326 324 322 320
325 325 326 328 329 330 331 332 333 334 334 335 337 336 336 335 337 333 334 334 337 337 336 337 339 339 341 342 341 340 341 339 338 338 336 337 337 336 338 336 335 334 333 334 333 332 332 332 332 332 328 330 335 334 331 329 330 331 328 325 323 321
323 324 325 326 326 327 329 329 330 332 333 333 334 335 335 335 336 333 333 335 337 336 335 333 335 338 339 341 340 339 339 338 337 337 337 337 338 338 337 335 335 335 334 333 334 334 333 333 333 331 329 335 332 333 331 332 330 331 331 328 326 323
321 323 324 325 325 325 326 328 329 330 331 332 332 333 334 333 335 335 335 335 336 334 336 335 335 335 341 336 339 339 339 338 338 338 337 337 337 338 338 335 335 335 334 334 335 335 334 333 331 330 336 333 331 331 332 332 331 332 328 327 325 324
320 321 322 323 324 324 325 326 327 328 329 330 330 331 332 333 332 333 334 335 335 335 336 337 336 338 337 338 340 339 339 338 338 339 338 337 337 337 338 337 335 335 334 334 334 334 334 331 332 332 331 332 335 334 332 332 333 331 331 328 329 328
319 320 321 321 322 323 324 325 326 327 326 326 327 329 330 333 334 335 334 334 334 336 336 337 337 338 338 336 338 340 338 338 339 339 335 336 337 335 338 338 336 337 335 338 336 335 335 333 333 331 331 333 333 332 333 333 333 333 336 335 334 332
317 319 319 320 321 321 322 323 324 325 326 326 327 326 327 329 332 335 335 335 335 335 337 337 338 339 336 332 335 338 336 334 334 336 336 338 338 339 338 334 336 336 336 336 334 333 333 335 336 334 330 334 333 331 331 334 335 336 335 334 333 332
Wind_Speed
9 8 9 7 8 9 9 8 8 7 7 7 8 8 7 9 10 10 10 10 10 10 10 10 11 9 12 9 7 7 9 9 6 6 5 4 5 8 9 10 10 10 11 11 10 10 9 6 3 3 7 8 10 8 2 4 4 5 6 7 7 8
4 5 3 5 2 3 8 10 9 10 10 9 9 10 10 11 12 10 10 9 8 7 7 8 8 11 8 10 10 10 10 9 7 4 4 5 5 8 9 10 11 11 11 11 14 8 7 7 5 6 9 10 8 2 1 2 3 5 7 7 8 8
7 5 6 4 1 1 8 7 8 9 8 12 11 13 11 11 10 10 10 9 7 3 1 4 3 6 6 9 10 11 11 11 9 6 4 6 7 8 10 10 11 11 11 13 11 6 6 6 6 10 10 8 7 3 2 2 4 5 8 8 8 9
8 9 7 3 4 1 1 1 4 7 8 8 9 10 11 10 7 7 9 6 3 2 3 3 2 2 9 8 8 10 11 11 11 8 8 6 8 8 10 10 10 10 9 8 6 6 6 6 6 5 6 8 3 4 4 3 5 6 7 8 8 9
8 9 8 6 3 4 1 0 4 4 6 6 6 8 7 8 5 0 3 3 3 2 3 2 2 2 3 2 5 7 8 8 8 8 10 7 7 8 9 9 8 9 7 7 6 4 5 6 5 4 1 3 3 2 2 3 4 6 7 7 8 8
6 7 6 5 5 2 5 4 4 4 3 4 6 5 5 4 4 4 4 4 3 3 2 2 3 1 2 1 3 3 7 7 9 9 11 8 8 8 8 8 8 9 8 6 4 3 4 4 4 3 4 3 3 3 3 4 4 6 6 6 8 8
6 7 8 6 4 6 7 5 4 4 3 2 2 3 6 5 5 4 1 2 4 4 2 2 3 2 2 2 3 2 6 6 8 9 9 7 8 8 7 7 7 8 7 6 6 5 4 4 3 4 4 5 3 3 4 4 5 6 7 7 8 7
4 5 7 7 8 6 6 6 5 5 6 5 3 4 5 2 2 2 4 2 2 2 2 3 3 3 3 2 3 5 5 8 7 8 8 6 7 7 7 7 7 8 7 7 7 6 5 5 4 4 4 3 4 3 2 3 3 3 4 8 9 9
9 7 6 9 8 6 5 5 5 2 3 1 3 4 1 2 1 3 7 6 1 1 0 2 2 3 2 3 2 4 8 6 6 6 7 6 6 7 7 6 6 7 7 6 5 5 5 5 4 4 4 4 3 3 1 2 3 4 4 4 9 10
5 8 8 7 6 6 5 4 3 3 3 2 1 3 2 2 2 2 2 4 5 4 2 2 3 3 3 3 3 5 4 3 7 5 6 6 6 6 6 7 6 7 7 5 6 5 4 5 5 5 5 4 2 2 2 2 2 2 4 8 7 8
4 3 6 6 5 5 4 4 4 4 3 2 4 4 3 2 3 2 2 3 4 4 5 3 4 6 3 5 5 5 4 5 9 5 4 5 5 6 6 6 7 7 6 5 4 5 5 4 5 5 5 5 5 4 3 3 3 2 3 4 7 7
3 4 3 5 2 4 4 3 3 4 2 4 5 6 5 3 3 2 2 2 4 4 3 1 5 4 4 3 4 6 5 10 7 6 5 5 6 5 6 6 8 7 6 4 5 5 5 5 5 5 6 7 5 4 4 2 2 3 3 4 8 7
2 2 3 4 3 0 1 2 2 1 6 8 7 5 4 7 7 5 5 6 4 5 6 3 3 3 3 4 4 5 8 7 8 4 6 6 7 6 5 6 6 6 6 6 5 5 4 5 5 5 6 6 5 4 4 3 3 4 4 4 5 7
2 2 2 2 3 3 0 3 4 4 2 1 3 4 4 3 8 7 5 6 5 6 6 5 6 5 5 5 4 6 5 8 8 7 3 6 5 6 6 7 7 7 7 7 6 6 6 6 6 5 5 5 4 5 4 4 4 4 4 4 4 5
3 3 4 2 3 2 3 3 2 2 1 2 3 3 2 2 2 4 5 5 7 5 6 8 8 5 5 3 3 5 8 8 8 5 7 3 5 5 7 6 7 8 7 7 6 7 7 6 7 7 4 4 5 5 4 5 4 4 4 4 4 5
2 2 2 1 1 1 1 1 2 1 2 3 3 3 2 2 2 2 2 4 5 5 6 7 7 8 5 5 6 6 6 2 3 6 7 7 3 6 5 7 7 7 7 8 7 8 7 7 8 7 6 6 5 5 5 5 5 5 4 3 5 4
2 1 2 2 2 2 1 1 1 2 3 3 4 3 3 3 2 3 1 3 5 6 7 8 8 9 6 7 7 6 4 5 4 3 1 6 6 5 5 6 5 7 7 7 8 8 7 8 8 8 8 7 6 5 5 4 4 5 3 3 5 5
1 2 2 2 2 2 2 2 2 3 2 5 4 4 4 3 4 2 3 3 4 6 6 6 7 6 4 6 6 7 7 6 6 4 3 4 3 4 6 8 3 5 7 7 8 6 6 8 8 6 7 6 5 5 4 3 4 4 4 5 5 5
2 2 2 2 2 2 2 2 1 3 4 5 5 5 4 4 5 3 3 4 4 4 4 5 5 7 8 5 6 7 8 8 7 6 4 4 3 5 4 5 1 8 6 5 2 1 2 4 6 8 8 7 6 6 4 3 4 5 5 5 4 6
2 2 2 3 2 2 2 2 2 2 4 5 5 5 3 5 5 5 4 4 5 4 4 4 5 7 7 7 8 8 6 6 7 6 7 6 6 4 5 7 9 9 4 5 0 2 1 5 6 10 7 6 6 5 5 5 6 6 5 5 4 5
1 2 2 3 3 4 4 3 3 3 4 4 5 5 4 5 6 6 6 6 5 6 6 6 6 8 7 6 6 6 8 6 5 7 7 6 6 6 4 5 5 4 6 8 4 3 4 2 6 5 5 1 3 3 3 5 8 7 6 4 4 5
1 0 1 3 3 4 4 3 2 3 3 4 4 5 6 6 6 7 8 7 7 7 7 7 7 8 8 8 7 7 7 8 8 8 7 7 8 6 4 4 6 5 5 8 6 7 7 5 9 8 6 5 2 3 6 6 8 7 4 4 3 7
1 1 1 3 1 2 3 3 1 3 2 4 5 5 8 5 5 6 7 7 7 7 8 8 9 9 8 9 9 8 7 7 8 7 5 7 8 8 7 7 8 8 4 3 3 4 8 9 9 8 8 5 7 4 5 6 7 8 5 5 4 5
1 2 1 2 4 3 4 3 4 3 4 3 5 5 7 6 8 7 8 7 8 8 9 9 9 9 8 9 9 9 8 7 7 7 7 6 7 8 8 8 7 8 8 7 6 7 7 10 4 3 5 6 5 6 5 8 7 7 7 7 7 5
1 2 2 4 5 4 3 3 3 4 5 4 6 7 5 7 7 7 6 6 8 9 8 8 9 10 10 9 9 9 9 9 9 8 8 9 8 7 8 9 10 8 9 9 9 7 7 6 5 6 4 2 2 5 6 4 8 8 6 6 10 6
4 3 2 5 5 4 4 4 4 4 4 3 5 3 4 4 8 8 7 5 8 9 9 8 9 10 10 9 9 9 10 10 9 9 9 10 8 6 9 10 10 8 11 9 7 6 6 4 7 8 7 6 4 2 3 2 5 5 4 7 4 5
6 5 6 6 7 5 4 4 4 5 4 4 4 5 5 6 8 7 6 7 7 8 9 9 10 10 10 10 9 8 9 10 10 10 10 9 9 9 8 10 9 7 7 8 8 8 8 8 7 7 10 7 4 2 3 4 5 1 4 5 5 5
7 7 7 9 9 8 7 4 5 6 5 6 5 8 7 8 7 6 7 8 7 8 8 9 9 10 10 10 10 10 10 9 10 10 8 10 10 9 9 10 9 9 6 6 8 8 8 7 9 9 8 8 7 4 4 2 2 3 1 3 7 5
7 7 7 8 9 9 9 9 7 5 5 4 8 9 6 6 7 8 8 7 8 8 8 9 10 10 10 11 10 10 10 10 10 10 8 10 9 10 10 9 9 10 10 9 8 8 7 7 7 9 7 6 5 5 4 4 3 4 2 5 6 7
8 7 7 7 7 9 10 8 8 8 6 5 6 6 5 4 7 7 9 9 8 7 8 8 9 10 9 10 10 10 10 10 10 10 9 10 10 9 10 10 10 11 11 12 11 9 9 7 10 5 4 5 6 5 4 5 4 4 5 6 7 5
7 7 7 8 8 8 8 8 8 9 10 9 8 7 7 7 5 6 8 8 7 7 7 8 8 8 9 10 10 11 10 10 10 9 10 10 9 9 9 11 11 12 13 12 10 10 9 9 5 4 6 5 9 8 7 7 6 7 7 6 6 8
8 8 8 8 8 8 7 8 8 9 10 11 10 7 7 8 7 6 8 9 9 7 7 8 8 9 9 9 9 9 10 10 9 9 10 9 9 9 8 9 9 9 8 11 10 9 9 9 9 6 7 9 6 6 6 5 5 6 6 6 7 7
8 8 8 8 8 9 9 8 8 9 9 9 10 10 10 9 6 6 8 9 8 8 8 7 8 9 9 9 9 9 9 9 9 9 10 10 9 9 9 9 10 11 12 13 11 10 8 9 8 7 9 8 6 5 5 6 7 4 4 3 6 5
8 9 9 8 8 8 8 8 9 9 9 8 9 9 9 8 9 9 8 9 9 9 8 6 8 12 7 10 11 10 10 10 11 9 10 10 9 10 9 9 11 11 12 11 10 10 8 7 7 9 5 6 8 7 6 6 8 5 5 5 6 7
9 9 9 9 8 9 8 8 8 8 8 9 9 9 9 8 8 8 9 10 10 9 9 8 9 9 9 11 9 10 11 10 10 10 9 10 9 10 10 10 9 12 11 10 11 10 10 11 10 7 7 5 5 6 5 8 6 8 9 9 9 7
10 9 9 10 9 9 9 8 9 9 10 10 9 9 9 8 9 9 9 9 10 10 9 9 9 10 8 10 10 10 10 10 7 5 9 12 9 8 11 10 10 9 11 9 11 13 10 10 9 10 8 6 8 7 7 7 8 10 9 7 6 5
9 9 10 9 9 9 9 9 9 9 9 9 9 10 10 12 12 11 11 10 9 11 11 10 9 8 6 9 11 10 9 8 8 9 12 10 10 10 9 11 11 11 11 10 10 11 9 7 8 11 9 12 8 6 7 8 10 9 8 7 6 6
Wind_Direction
144 164 153 144 143 151 154 154 157 154 159 161 166 172 164 168 166 167 167 167 170 175 163 155 160 152 148 156 163 140 163 165 166 164 158 145 140 148 146 138 133 126 126 127 125 124 120 125 151 210 248 254 260 270 27 90 120 118 103 105 101 101
92 107 91 60 101 157 156 179 177 169 182 174 176 180 181 184 184 179 188 176 192 181 170 160 165 147 166 144 147 155 160 163 162 163 140 131 141 149 151 142 136 138 135 138 150 147 141 139 175 231 245 249 259 224 65 47 69 91 101 93 100 110
133 102 65 94 358 192 169 189 181 180 183 187 187 196 191 189 185 181 185 181 181 190 352 76 129 163 155 160 146 158 160 161 162 152 135 122 144 150 152 147 146 148 155 168 184 155 154 151 172 216 242 246 251 92 88 100 106 93 84 92 99 102
127 123 145 124 163 217 304 101 233 194 184 191 196 203 199 201 174 184 179 166 133 180 97 82 345 174 151 146 144 157 161 163 161 158 150 153 140 153 151 149 155 161 180 189 207 158 157 153 162 193 219 230 136 143 168 169 94 92 100 106 104 119
133 137 151 136 155 190 116 348 251 240 189 199 209 202 209 204 137 244 124 70 143 169 133 122 180 127 143 143 162 173 171 177 173 171 180 176 179 154 174 172 168 188 199 201 202 167 157 149 174 192 196 85 144 156 109 90 109 105 96 98 107 123
131 152 126 143 143 143 183 221 238 217 238 187 225 230 242 203 108 200 171 141 147 174 156 182 183 8 56 170 245 229 193 185 179 173 193 179 187 168 188 182 183 189 204 205 180 162 155 161 160 167 150 134 150 187 127 95 86 95 105 110 116 120
147 152 128 140 123 158 204 203 218 244 251 266 308 251 237 220 149 161 85 161 164 178 185 188 207 162 196 229 237 254 262 202 179 176 195 189 180 170 195 182 194 194 206 196 176 166 158 171 182 157 153 169 174 143 146 157 142 147 119 121 120 130
165 150 140 140 176 183 192 194 205 221 230 177 230 221 243 306 61 164 162 181 161 187 182 194 214 191 199 290 232 257 244 253 179 181 195 187 187 184 196 186 197 206 210 189 181 171 167 162 174 197 159 153 179 168 171 119 135 95 137 129 144 148
166 185 142 174 167 181 185 192 190 209 254 181 223 280 307 338 2 66 138 161 277 189 206 304 271 241 154 223 302 251 250 245 212 188 181 200 199 188 189 204 199 208 211 193 171 166 160 174 168 190 171 176 194 117 107 90 122 193 142 161 137 139
140 143 149 181 169 159 178 161 157 178 282 311 281 276 297 38 339 186 135 113 176 153 116 183 327 286 246 245 191 246 248 300 252 191 188 198 210 198 193 191 209 213 209 193 177 172 176 177 188 191 182 157 147 147 130 158 201 177 161 103 121 135
123 140 156 159 154 150 164 169 178 184 171 164 197 233 243 176 250 210 175 151 110 124 137 186 194 253 245 233 239 254 245 192 250 181 212 203 208 206 202 191 208 211 217 191 179 158 190 180 206 192 168 164 174 176 173 181 215 176 179 154 121 141
134 145 166 122 142 145 160 175 183 205 188 219 235 170 216 213 155 223 168 111 110 105 80 155 157 223 243 256 281 284 282 237 216 187 203 210 200 213 206 203 204 210 218 199 182 174 195 193 209 200 167 186 172 168 182 187 210 200 180 173 144 153
183 131 141 133 165 148 187 202 225 190 211 219 207 223 191 199 153 206 171 148 140 129 125 211 170 177 248 242 246 282 277 313 260 200 192 202 203 202 219 200 200 211 209 211 197 178 197 206 216 211 195 168 170 181 171 195 200 204 205 168 183 160
160 157 170 163 180 153 266 285 241 223 261 195 245 216 189 198 162 180 167 159 138 134 158 175 191 195 209 224 218 238 252 273 299 240 191 196 199 203 207 212 196 202 206 212 194 183 195 207 207 219 215 170 191 172 181 188 204 204 210 198 181 170
165 167 188 195 191 186 173 211 204 247 243 265 242 240 244 215 195 190 163 149 147 181 194 180 175 184 211 227 216 234 234 207 261 295 240 193 221 205 214 214 204 202 198 206 200 195 200 207 209 204 219 184 198 178 193 194 196 211 193 205 180 191
179 162 186 192 232 247 198 206 283 299 252 259 274 269 244 247 259 191 174 140 151 169 195 188 179 171 189 224 224 231 254 289 259 301 331 269 218 230 225 213 212 212 195 201 203 200 201 204 211 209 203 198 206 189 194 191 186 216 186 190 207 182
143 196 173 221 234 221 274 263 290 305 301 281 276 283 272 282 259 262 177 162 164 183 206 187 183 175 184 209 221 226 242 256 269 228 275 306 281 269 252 221 227 215 212 205 206 202 203 210 202 205 206 202 205 193 203 194 175 224 168 201 220 173
153 188 178 235 233 256 246 255 253 258 263 281 279 278 294 289 289 281 264 230 194 200 209 213 178 201 181 217 224 222 226 239 247 236 214 262 282 279 283 273 245 246 226 212 214 204 203 212 213 203 203 199 199 207 192 197 197 209 208 213 220 191
214 203 200 235 263 250 262 263 297 292 266 262 270 280 290 292 281 280 261 257 254 246 229 222 229 201 173 222 234 221 228 231 236 228 206 218 238 247 271 329 98 263 267 258 53 117 227 328 257 200 204 193 196 210 178 202 215 204 219 225 215 208
240 253 208 211 224 251 241 228 216 230 281 270 272 279 279 281 283 275 269 259 261 255 242 238 233 237 224 202 226 219 223 224 224 232 229 217 221 240 208 217 236 224 224 291 90 241 295 205 222 255 201 189 203 218 196 199 214 217 211 241 225 211
351 246 246 230 223 227 224 218 221 224 257 292 296 281 269 270 276 276 283 281 266 261 268 256 242 244 239 229 230 226 227 223 240 236 219 221 220 222 219 212 233 201 181 216 191 207 264 250 253 232 182 129 4 314 225 217 218 216 216 221 222 239
119 228 234 237 256 249 250 243 255 257 266 285 283 291 289 260 263 273 275 272 264 260 258 254 242 244 242 236 234 232 234 225 221 226 221 225 226 208 207 223 214 203 177 206 195 163 204 208 220 215 197 185 226 316 269 259 242 223 263 275 311 263
93 267 350 334 285 267 277 290 224 297 285 303 303 299 279 317 284 272 266 264 262 253 250 249 239 234 246 246 239 232 230 231 218 215 220 234 218 210 209 220 220 208 170 189 190 170 202 216 225 206 207 200 212 209 223 230 238 243 235 258 283 306
345 301 323 322 320 337 332 321 304 246 263 231 275 270 272 269 259 257 263 260 261 263 258 258 257 248 246 248 243 243 236 228 222 211 219 216 212 212 212 219 201 204 198 200 200 208 193 214 223 113 197 221 210 204 225 222 215 218 226 236 241 220
327 273 254 257 274 304 312 282 244 252 253 229 246 252 239 262 253 261 261 263 258 260 259 257 261 260 256 256 254 251 248 239 231 216 217 222 218 210 211 209 200 202 208 206 205 209 203 217 193 174 178 165 182 212 220 233 197 219 198 218 226 192
347 344 300 263 274 284 282 270 264 245 248 275 280 290 288 298 281 253 256 259 256 261 260 249 244 249 253 258 258 256 253 249 236 220 216 221 216 203 223 204 202 208 210 202 206 205 217 223 220 193 203 218 265 201 198 170 159 223 198 224 228 166
349 341 338 341 334 325 303 276 261 268 262 257 270 281 272 265 249 268 267 258 257 254 258 256 248 251 254 256 254 249 246 244 247 238 222 218 216 212 214 220 203 202 208 201 203 213 197 210 205 223 215 217 210 98 121 153 206 111 229 218 218 218
354 349 355 349 339 330 313 294 270 268 263 275 262 270 257 261 281 273 262 257 258 260 255 255 253 246 250 250 248 247 244 244 244 241 227 222 218 217 218 221 200 196 202 194 198 204 205 210 209 208 201 204 205 187 182 181 210 200 344 239 215 197
0 353 351 346 337 335 331 322 308 274 263 263 267 257 251 281 286 279 266 256 256 260 256 251 253 252 243 244 245 245 246 245 242 241 232 235 224 216 212 207 199 198 205 202 202 209 214 214 219 225 191 208 193 188 201 216 193 138 199 235 233 203
6 354 348 340 341 338 331 324 315 310 293 273 269 277 266 253 259 275 269 271 261 253 257 254 248 252 250 243 243 245 245 246 244 239 234 241 232 224 215 205 194 200 195 203 207 206 214 217 228 211 164 188 204 201 222 235 225 195 220 237 248 214
12 3 355 352 344 335 327 326 316 315 307 304 297 285 281 266 269 281 281 270 264 261 260 255 253 247 247 243 243 242 246 244 241 241 237 235 230 223 221 212 200 190 193 199 206 205 209 219 213 175 203 206 211 200 196 205 210 201 201 212 215 242
14 5 2 358 349 345 334 330 329 325 314 315 315 307 288 288 269 271 276 281 272 256 254 255 251 254 252 245 239 238 237 241 243 239 233 230 227 218 215 209 198 186 195 205 206 206 210 215 212 194 211 219 200 190 200 212 227 205 195 206 227 223
8 1 360 0 353 349 343 339 330 324 325 320 317 316 312 301 301 271 259 266 275 271 264 267 266 261 257 256 248 241 239 234 239 232 232 226 224 210 205 199 196 189 195 199 202 204 204 206 201 206 210 208 201 192 209 219 230 213 178 196 212 233
3 357 351 356 353 352 346 340 338 332 330 324 321 314 305 305 308 307 298 286 280 278 273 259 276 270 246 259 250 247 242 237 238 237 230 227 217 218 201 214 194 198 192 198 202 204 206 201 208 214 211 194 204 193 206 226 229 198 191 195 217 212
1 1 353 355 351 350 346 347 340 334 330 333 329 325 320 311 300 297 299 299 292 284 278 273 264 266 284 266 264 254 249 248 242 246 236 226 214 213 206 213 204 196 190 194 197 199 199 199 203 196 209 211 207 192 205 220 221 228 202 213 220 210
3 359 356 355 354 345 345 341 339 342 341 339 330 324 313 310 309 301 293 284 282 281 278 275 276 280 298 291 274 269 261 250 252 245 246 231 214 224 215 212 210 199 201 197 197 202 204 197 192 198 213 210 212 211 210 211 217 222 215 207 202 198
9 9 6 357 354 347 344 339 337 340 337 332 328 327 322 317 315 312 301 289 280 279 280 274 271 269 272 284 274 262 262 266 257 236 229 222 222 215 211 213 215 202 201 196 201 205 205 206 200 192 205 203 199 215 224 213 223 219 214 207 207 200